Regional Weather Roundup
Issued by NWS Wakefield, VA

Home | Current Version | Previous Version | Text Only | Print | Product List | Glossary Off
Versions: 1 2 3 4 5 6 7 8 9 10 11 12 13 14 15 16 17 18 19 20 21 22 23 24 25 26 27 28 29 30 31 32 33 34 35 36 37 38 39 40 41 42 43 44 45 46 47 48 49 50

000
ASUS41 KAKQ 031015
RWRAKQ

REGIONAL WEATHER ROUNDUP
NATIONAL WEATHER SERVICE WAKEFIELD VA
600 AM EDT WED JUN 03 2015

Note: "fair" indicates few or no clouds below 12,000 feet with no
significant weather and/or obstructions to visibility. * = Denotes
station may not report precipitation (e.g., rain,snow,etc.),
thunder or fog.

VAZ042-051-052>054-056-031100-
NORTHERN VIRGINIA

CITY           SKY/WX    TMP DP  RH WIND       PRES   REMARKS
WASH NATIONAL  CLOUDY    60  55  83 NE13      30.14R
DULLES         CLOUDY    56  54  93 NE7       30.14R
FORT BELVOIR   CLOUDY    57  55  94 VRB1      30.13S FOG
QUANTICO       CLOUDY    59  55  87 E16G23    30.13R
FREDERICKSBRG* CLOUDY    60  60 100 NE6       30.11R
STAFFORD*      CLOUDY    56  55  95 N5        30.16R FOG
WARRENTON      CLOUDY    57  57 100 N6        30.13S FOG
CULPEPER*      CLOUDY    56  55  97 NE5       30.14S
MANASSAS*        N/A    N/A N/A N/A MISG        N/A
LEESBURG*      CLOUDY    57  57 100 NE5       30.15R
WINCHESTER     CLOUDY    55  55 100 CALM      30.15S
FRONT ROYAL*   CLOUDY    55  54  94 CALM      30.13S
LURAY*         CLOUDY    57  57 100 N9        30.13S
$$

VAZ048-049-060>072-079>083-031100-
CENTRAL AND SOUTH CENTRAL VIRGINIA

CITY           SKY/WX    TMP DP  RH WIND       PRES   REMARKS
RICHMOND       DRIZZLE   60  57  89 NE8       30.08R FOG
CHESTERFIELD*  NOT AVBL
PETERSBURG*    CLOUDY    61  61 100 N9        30.07R
HANOVER        CLOUDY    59  58  96 N5        30.10S FOG
TAPPAHANNOCK*  DRIZZLE   59  55  88 N6        30.10S
QUINTON*       CLOUDY    58  58  97 CALM      30.08R
CHARLOTTSVILLE CLOUDY    57  55  93 NE10      30.11S
GORDONSVILLE*  CLOUDY    55  55 100 NE9       30.10S FOG
ORANGE*        RAIN      57  55  94 N6        30.13R
LOUISA*        DRIZZLE   57  57 100 NE8       30.10R
BUMPASS*       CLOUDY    57  56  97 NE6       30.10S
FARMVILLE*     DRIZZLE   59  59 100 N10G16    30.06S
CREWE*         CLOUDY    58  57  96 N3        30.07R
FORT PICKETT*  NOT AVBL
CHASE CITY*    CLOUDY    60  60 100 N5        30.06R
CLARKSVILLE*   CLOUDY    59  59 100 NE3       30.04S
SOUTH HILL*    CLOUDY    59  59  99 CALM      30.10R
LAWRENCEVILLE* CLOUDY    61  61 100 NE7       30.05S
EMPORIA*       CLOUDY    61  61 100 N7        30.06R FOG
$$

VAZ088>098-031100-
SOUTHEAST VIRGINIA

CITY           SKY/WX    TMP DP  RH WIND       PRES   REMARKS
NORFOLK        CLOUDY    64  62  93 NE14      30.04R
VIRGINIA BEACH CLOUDY    65  62  90 N13G20    30.03R FOG
NORFOLK NAVAL  DRIZZLE   69  63  81 NE14      30.06R FOG
WEST POINT*    CLOUDY    62  59  91 NE5       30.09S
SALUDA*        CLOUDY    60  58  94 N7        30.08R
NEWPORT NEWS   LGT RAIN  67  61  81 NE14G20   30.05R
LANGLEY AFB    DRIZZLE   64  63  94 NE17      30.04R FOG
FORT EUSTIS    CLOUDY    63 N/A N/A VRB7      30.03R
WILLIAMSBURG*  CLOUDY    64  63  94 NE3       30.07R
HR EXEC AP*    CLOUDY    64  63  94 NE5       30.06R
FRANKLIN*      CLOUDY    63  63  99 NE6       30.04S FOG
WAKEFIELD      CLOUDY    62  60  93 VRB6      30.05S
$$

VAZ020-022-025-037-045-031100-
WEST CENTRAL AND SOUTHWEST VIRGINIA

CITY           SKY/WX    TMP DP  RH WIND       PRES   REMARKS
STAUNTON*      DRIZZLE   58  56  92 N7        30.13S
WAYNESBORO*    CLOUDY    55  55 100 N5        30.12R
HOT SPRINGS VA RAIN      51  51 100 E9G17     30.11R VSB<1/4
LYNCHBURG      CLOUDY    56  55  97 NE16      30.09R
DANVILLE       CLOUDY    60  58  92 NE9       30.06R FOG
SOUTH BOSTON*  CLOUDY    59  57  95 N5        30.06R
MARTINSVILLE   CLOUDY    59  59 100 NE5       30.09R FOG
ROANOKE        LGT RAIN  58  58 100 SE5       30.10R FOG
BLACKSBURG     CLOUDY    58  57  96 E8        30.11R FOG
DUBLIN*        CLOUDY    60  60 100 E7        30.09R FOG
MARION*        LGT RAIN  61  60  94 NE8       30.09S
HILLSVILLE*    CLOUDY    58  58  99 E6        30.10R
RICHLANDS*     FOG       58  58 100 NE5       30.06R VSB<1/4
WISE*          FOG       57  57 100 CALM      30.07S VSB<1/4
ABINGDON*      MOCLDY    60  60 100 E5        30.03S
$$

MDZ021>025-VAZ099-100-031100-
SOUTHERN MARYLAND AND THE DELMARVA PENINSULA

CITY           SKY/WX    TMP DP  RH WIND       PRES   REMARKS
PATUXENT RIVER DRIZZLE   58  56  93 NE10      30.11R FOG
BAY BRIDGE APT   N/A    N/A N/A N/A E7        30.14R
LEONARDTOWN    CLOUDY    55  54  94 NE5       30.12S
DOVER          CLOUDY    55  55 100 NE12      30.11S
GEORGETOWN     CLOUDY    56  54  93 NE13      30.13R
EASTON         CLOUDY    57  57 100 NE14      30.16R
CAMBRIDGE      CLOUDY    57  54  88 NE7       30.11R
SALISBURY      LGT RAIN  56  55  97 NE14      30.10R FOG
OCEAN CITY     HVY RAIN  58  56  93 NE15      30.10R FOG
WALLOPS ISLAND LGT RAIN  60  60 100 NE16G26   30.08R
ACCOMACK*      CLOUDY    61  59  94 N9        30.06S
$$

NCZ012>017-030>032-031100-
NORTH CENTRAL AND EASTERN NORTH CAROLINA

CITY           SKY/WX    TMP DP  RH WIND       PRES   REMARKS
ROANOKE RAPIDS CLOUDY    63  63 100 NE5       30.03S FOG
RALEIGH        CLOUDY    64  61  90 NE6       30.02R
ELIZABETH CITY CLOUDY    66  65  96 N9        30.03R FOG
AHOSKIE*       DRIZZLE   64  63  97 NE5       30.03S
EDENTON*         N/A     64  64  98 NE7       30.02R FOG
CURRITUCK*     CLOUDY    67  65  95 N8        30.03R FOG
KILL DEVIL HLS CLOUDY    65  65  99 N6        30.00S
MANTEO         CLOUDY    68  67  98 N7        30.01S
CAPE HATTERAS  CLOUDY    74  66  76 S5        29.99S
TARBORO*       LGT RAIN  67  65  94 NE8       30.02R
GOLDSBORO      CLOUDY    69  69  99 CALM      29.95F
WASHINGTON     HVY RAIN  68  67  96 NW12      30.00R
GREENVILLE     LGT RAIN  70  70 100 NE5       30.01S
NEW BERN       TSTM      70  67  90 CALM      30.01R FOG
WILMINGTON     CLOUDY    68  66  93 CALM      29.98S
$$

VAZ048-031100-
ELSEWHERE

CITY           SKY/WX    TMP DP  RH WIND       PRES   REMARKS
HARRISBURG PA  CLOUDY    57  54  89 CALM      30.17R
BALTIMORE      CLOUDY    56  54  93 NE10      30.14R
ANNAPOLIS      CLOUDY    57  57 100 VRB5      30.14R FOG
ANDREWS AFB    CLOUDY    55  55 100 NE9       30.12R FOG
PHILADELPHIA   CLOUDY    55  51  86 NE9       30.17S
HENDERSON NC   CLOUDY    60  58  93 NE8       30.04R
GREENSBORO     DRIZZLE   61  60  97 NE12      30.03R FOG
ROCKY MOUNT    CLOUDY    67  65  93 NE9       30.00F
$$

VAZ100-031100-
MARINE

STATION/POSITION TIME  TEMP    WIND        PRES    WAVE   SWELL
                       AIR SEA DIR/SP/G            HT/PER HT/PER
                 (UTC) (F)     (DEG/KT/KT) (MB)    (FT/S) (FT/S)
BRANDYWINE LGT   0900   56 65   60/ 21/ 23 1019.9F
CAPE MAY NJ      0900   55 63   40/  6/ 13 1019.6S
LEWES DE         0900   56 62   40/ 19/ 21 1019.9S
15NM E FENWICK I 0950   60 64              1018.2R   7/ 7
OCEAN-CITY-INLET 0900   58 57   30/  6/ 12 1018.8R
WACHAPREAGUE VA  0900   61 71   20/ 10/ 13 1017.5F
THOMAS POINT MD  1000   57 71   60/ 12/ 14 1021.0R
GOOSES REEF MD   1000   59 71   50/ 14/ 17 1020.9R   2/ 3
COVE POINT MD    0900   58      50/ 13/ 18 1020.0F
SOLOMONS ISLAND  0900      73                N/A
BISHOPS HEAD MD  0900   58 69   30/ 16/ 20 1018.5F
PINEY POINT MD   0900           70/  9/ 12   N/A
CAMBRIDGE MD     0900   58 74   40/ 12/ 17 1019.2S
LEWISETTA VA     0900   60 71              1018.6R
RAPPAHANNOCK LGT 0900           20/ 19/ 22 1018.0F
STINGRAY PT      1000   64 72   50/ 17/ 21 1017.8R   3/ 3
YORK RVR RNG VA  0900   63      30/ 18/ 21 1016.5F
YORKTOWN VA      0900   63 74   20/ 11/ 16 1017.2F
JAMESTOWN VA     1000   61 79   30/  6/ 10   N/A
DOMINION TERM VA 0900   65      40/  5/  8 1017.1F
KIPTOPEKE VA     0900      71   30/  7/ 13   N/A
CHES BAY BRIDGE  0900   63 69   10/ 14/ 18 1016.5R
CAPE HENRY VA    0900   63      10/ 19/ 21 1015.6R
CHESAPEAKE LGHT  0900   64     360/ 17/ 18 1016.8R
WILLOUBY STN VA  0900   64      30/ 15/ 17 1017.8R
CAPE HENRY BUOY  0928      67                N/A     5/ 7
1ST LANDING BUOY 1000      65              1016.7R
CAPE CHARLES BUO 0926      64                N/A     4/ 7   2/ 7
OFFSHORE WE BUOY 0911      70                N/A     5/ 7   3/ 7
64NM E OF VA BCH 0950   72 73  280/  4/  4 1015.6R   3/ 7   3/ 7
DUCK PIER NC     0900   62 58  350/ 10/ 11 1015.1S
44100 DUCK FRF   0924      74                N/A     4/ 7
44056 DUCK FRF   0911      59                N/A     4/ 6
OREGON INLET NC  0900   69 69  350/  7/  9 1015.7R
HATTERAS NC      0900   75 77  110/  3/  4 1014.9R
DIAMOND SHLS NC  0950   75 81  190/  6/  6 1015.4S   2/ 8   2/ 8
CAPE LOOKOUT NC  1000   74     120/ 13/ 14 1015.0R
$$



USA.gov is the U.S. government's official web portal to all federal, state and local government web resources and services.